Theta_e
323 323 323 324 324 324 324 324 324 323 323 324 324 324 324 323 321 317 315 312 309 309 312 312 312 310 309 306 300 296 294 293 293 291 292 292 291 291 290 289 289 288 287
323 323 323 323 323 323 323 324 323 324 323 324 324 323 322 322 321 317 315 312 308 307 309 310 310 309 306 303 297 294 293 293 293 291 291 291 291 290 289 289 288 288 287
323 323 323 323 323 323 323 323 323 323 323 323 322 322 322 321 320 319 316 309 306 304 305 305 304 303 301 298 294 293 292 292 292 292 290 289 289 289 288 287 287 287 287
323 323 323 323 324 323 323 322 323 323 323 323 322 323 323 322 320 315 307 305 305 304 304 303 298 300 298 296 292 292 292 291 291 290 289 288 288 287 287 287 286 286 287
322 323 324 324 324 323 323 323 322 322 323 321 325 317 317 314 312 309 306 304 306 306 302 301 298 299 296 295 293 292 291 290 289 288 287 287 287 286 286 287 286 285 285
316 317 320 323 324 324 324 323 323 323 322 321 321 317 313 311 312 307 305 306 305 303 303 300 299 296 293 293 292 292 292 291 289 288 287 287 287 287 286 286 285 284 284
309 310 311 314 316 318 319 320 321 320 320 317 315 312 312 310 309 308 311 306 305 303 301 296 297 294 292 291 291 290 290 290 290 290 289 289 288 287 286 285 284 284 283
307 306 308 310 311 312 313 314 313 312 312 311 311 308 308 309 305 306 306 304 303 300 300 299 297 293 291 290 290 289 289 289 289 289 288 288 287 287 286 285 284 283 282
301 303 304 303 307 310 311 312 311 309 308 310 308 306 306 307 307 305 301 298 300 300 297 300 295 293 291 290 290 289 289 289 288 288 287 287 286 286 285 285 284 282 280
292 295 299 302 303 305 305 307 309 310 308 305 306 307 306 305 304 301 300 297 296 295 298 293 292 292 291 290 290 289 289 289 288 288 286 286 285 285 285 284 283 282 279
291 293 295 297 299 301 304 304 304 305 305 304 303 304 303 302 300 299 298 297 298 293 293 291 291 291 291 290 290 290 290 290 288 287 286 285 284 284 284 283 283 282 281
291 292 293 295 296 297 299 300 302 300 299 300 299 298 299 300 300 298 296 293 294 296 293 292 292 291 290 290 289 289 289 288 287 286 285 284 284 284 284 283 283 282 282
289 289 291 294 295 295 296 298 297 298 298 296 296 296 298 298 299 299 296 295 294 292 293 293 291 290 290 289 289 289 289 287 288 285 285 285 285 284 284 283 283 282 281
286 286 287 288 291 293 293 292 294 295 295 294 294 294 294 294 295 295 294 292 291 291 292 291 290 289 290 289 289 289 289 288 286 286 285 284 284 283 282 282 281 281 280
285 285 286 287 289 290 290 291 291 292 293 294 295 294 294 293 296 295 293 292 292 291 290 289 288 288 288 288 289 288 287 286 286 285 285 283 282 282 281 280 280 280 279
285 284 284 284 286 288 289 289 290 291 293 293 294 294 295 295 296 294 292 292 292 290 289 288 287 288 288 287 287 286 286 285 285 284 284 283 282 281 280 280 279 278 277
285 284 283 283 284 286 287 288 289 290 291 291 291 292 293 294 294 294 291 291 290 289 288 288 287 287 286 286 286 285 284 284 284 283 283 282 282 281 280 279 277 276 275
287 286 284 284 283 284 285 287 288 288 288 288 290 290 292 292 290 289 290 290 288 289 289 287 286 286 286 285 285 284 283 282 282 282 281 280 280 279 277 276 275 274 274
286 285 284 284 284 283 284 285 285 286 286 285 286 287 287 287 288 288 288 286 285 285 285 284 285 284 284 283 283 282 281 280 280 279 278 278 277 276 275 274 273 272 272
286 284 283 283 283 283 282 282 283 283 283 283 283 283 285 286 284 283 283 284 283 283 283 282 282 282 281 281 280 279 279 278 277 276 276 275 274 273 273 272 271 271 270
283 283 282 282 281 281 281 281 281 281 280 280 280 282 284 283 279 279 279 279 279 279 279 280 279 279 278 278 277 276 276 275 274 274 273 273 272 272 272 271 270 269 269
283 283 283 282 282 281 281 280 279 279 279 277 276 275 280 279 278 277 277 277 277 277 277 278 277 276 275 275 274 274 274 274 273 273 272 272 271 271 270 270 269 269 269
282 282 282 282 281 281 280 280 279 278 277 276 276 276 276 275 275 275 275 274 275 275 275 275 274 273 273 273 273 273 273 273 272 272 271 271 271 270 270 269 269 269 269
281 281 280 280 279 279 278 277 276 275 275 274 274 273 273 273 272 271 272 272 273 273 272 272 272 272 272 272 272 272 272 272 272 271 271 271 270 270 269 269 269 269 269
279 279 279 278 278 277 276 275 275 274 274 273 273 272 272 272 271 271 271 271 271 271 271 271 271 271 271 271 271 271 271 271 271 271 271 270 270 270 269 269 269 269 269
278 277 277 277 277 276 276 275 274 273 272 272 271 271 270 271 271 271 270 270 270 270 270 270 270 270 270 270 270 270 270 270 270 270 270 270 270 269 269 269 269 269 269
Wind_Speed
34 35 34 36 38 38 41 44 46 45 43 41 41 42 45 44 43 42 42 42 40 39 39 36 35 34 31 30 28 25 23 19 10 10 14 16 15 16 16 14 12 11 11
30 31 33 33 35 38 42 46 45 46 43 42 42 43 44 44 46 46 45 45 43 41 38 34 36 34 32 30 30 29 25 22 14 13 17 17 16 14 14 14 13 12 13
27 29 29 32 35 38 40 41 44 44 43 42 41 43 44 45 47 48 48 47 42 40 37 35 35 32 32 31 31 28 25 22 18 12 11 13 15 13 13 13 13 12 13
25 29 29 32 36 35 35 37 42 43 43 41 41 43 44 47 48 46 43 45 41 37 35 31 37 32 35 34 32 28 25 23 19 15 11 11 11 12 13 13 13 13 11
17 27 30 32 32 29 32 37 38 40 41 43 34 43 40 41 43 43 42 44 37 39 35 33 36 33 36 32 32 30 27 24 20 17 13 10 11 11 12 9 9 9 11
9 5 5 20 28 32 34 36 37 39 40 38 36 40 38 36 38 42 38 35 35 36 38 36 35 31 35 31 29 27 27 26 24 20 16 12 15 11 10 10 10 8 3
19 16 14 9 6 12 20 27 32 34 35 35 35 33 32 31 33 34 32 35 36 38 35 37 34 33 32 31 29 25 23 22 20 18 16 16 13 11 10 11 12 11 9
19 18 17 16 10 8 10 14 17 19 22 24 25 28 26 26 30 30 29 32 36 38 34 34 35 35 33 31 28 25 23 21 19 18 16 11 12 11 10 10 10 11 11
17 17 16 15 13 11 14 14 15 16 19 19 23 24 23 23 23 26 27 34 33 33 35 34 35 35 32 30 27 25 21 18 16 15 14 11 12 11 12 12 12 9 5
18 17 17 17 17 17 18 18 17 16 22 22 19 16 20 21 22 23 25 31 29 31 30 30 30 28 26 26 25 25 21 19 18 16 15 12 12 11 11 11 12 10 6
20 19 17 14 15 15 18 20 20 19 19 19 18 18 18 18 20 20 25 29 32 32 28 28 24 22 23 23 22 22 19 15 17 16 14 12 12 11 11 10 11 11 10
22 21 20 18 16 15 14 15 17 18 20 19 18 19 19 17 17 18 22 27 27 28 31 26 24 25 22 21 20 19 17 15 16 14 11 11 10 9 9 10 10 11 12
27 26 25 23 20 18 16 14 16 15 16 17 17 19 20 19 19 19 20 22 21 25 25 25 25 23 22 21 21 19 17 17 15 15 13 12 9 7 8 9 9 9 10
28 27 26 26 25 20 17 15 15 15 16 16 16 17 17 21 23 24 23 25 24 22 20 23 25 25 22 21 18 16 17 15 15 13 12 11 10 9 8 7 6 6 7
25 24 24 25 25 23 19 16 16 18 17 19 21 20 19 22 30 29 33 36 31 27 27 27 26 24 23 20 18 17 16 14 13 12 12 10 8 7 6 5 5 6 7
27 24 24 22 22 21 19 18 13 14 15 16 17 17 20 24 21 29 32 32 28 30 30 24 21 24 23 23 22 20 17 16 14 12 10 9 8 7 5 5 6 7 7
28 29 26 24 21 19 18 16 12 11 7 7 7 9 9 13 14 24 29 26 29 31 21 22 21 21 21 22 23 22 19 15 12 11 11 10 7 5 3 3 3 4 5
24 25 24 23 22 20 18 13 9 6 5 7 6 3 3 8 13 22 26 27 26 21 21 21 21 21 20 21 20 19 17 15 13 11 9 7 5 4 4 3 1 3 5
21 22 22 21 20 18 15 11 9 10 13 15 17 18 16 15 19 23 25 23 20 18 18 20 22 22 21 21 19 18 15 14 13 10 8 6 5 4 4 3 2 2 4
19 18 18 19 19 19 17 14 14 14 15 18 17 15 17 19 17 16 16 19 22 23 23 25 24 23 21 18 17 15 14 12 11 10 9 7 6 5 5 3 2 3 3
12 13 13 15 17 16 15 15 15 17 17 18 20 14 13 20 20 20 19 20 21 22 23 23 21 18 15 14 14 14 14 14 11 10 8 7 6 6 6 5 4 3 4
12 14 15 16 16 18 17 16 17 17 17 17 18 19 18 22 22 23 22 20 19 18 16 16 16 15 15 14 14 14 13 12 10 9 8 7 7 7 6 5 4 4 6
11 12 12 13 13 13 15 15 15 15 15 15 17 17 18 19 19 19 18 16 15 15 14 14 15 16 15 15 14 12 11 9 7 6 5 6 6 5 4 3 4 6 8
9 10 10 10 10 11 12 13 13 13 13 14 15 16 17 16 16 16 15 15 15 15 14 14 14 14 14 14 12 10 9 7 5 4 4 5 4 2 2 4 6 8 11
9 8 7 8 9 9 9 10 11 11 12 13 14 14 15 15 15 15 15 15 15 14 14 13 14 13 12 11 10 8 6 5 3 4 3 2 1 2 5 8 10 12 13
7 7 7 6 6 7 7 8 9 9 11 12 12 12 13 14 16 16 15 15 14 14 13 12 11 10 9 8 7 5 4 3 1 1 1 1 4 6 9 12 14 15 16
Wind_Direction
206 207 208 209 212 211 220 227 231 232 233 230 231 232 231 230 229 227 230 230 225 226 224 218 223 223 223 220 220 219 216 211 185 193 198 202 203 211 222 229 237 253 264
206 204 207 207 211 211 219 227 231 234 234 234 232 232 233 232 231 230 229 230 225 222 218 221 220 217 219 219 215 213 212 212 199 188 199 200 209 217 226 237 241 250 264
206 205 208 207 213 218 222 224 231 234 236 234 233 234 235 234 232 232 233 230 222 221 219 215 229 216 212 211 213 209 209 209 207 196 182 199 212 222 230 239 250 256 264
208 210 210 210 216 218 223 225 235 237 237 235 238 236 236 236 235 233 227 225 220 219 220 212 223 222 216 208 207 207 207 204 205 198 188 194 207 221 235 246 252 261 263
216 214 219 225 225 222 223 234 238 239 240 241 236 242 235 235 234 230 226 224 218 218 213 211 219 220 220 214 208 206 206 202 201 200 195 196 206 217 229 245 248 262 273
31 22 243 226 224 229 232 235 240 242 240 239 239 241 236 233 237 232 226 224 219 218 210 209 217 216 219 213 213 216 216 207 204 204 203 210 224 227 233 246 255 268 291
27 17 3 348 296 242 230 231 232 235 238 237 236 233 235 240 240 240 230 222 214 215 208 208 211 214 217 212 207 210 211 216 222 226 218 224 235 239 244 241 245 248 248
10 4 360 345 332 310 282 264 256 251 247 243 242 235 235 232 236 228 228 222 215 211 206 209 212 212 209 209 205 206 209 213 218 226 233 237 241 242 244 249 251 253 262
354 340 332 323 323 313 278 270 262 256 253 247 244 232 230 230 231 226 214 212 206 209 209 213 211 211 207 204 202 205 209 213 215 225 227 226 235 237 246 248 243 238 255
352 334 321 316 310 297 289 272 258 252 254 244 235 233 229 224 219 215 212 207 202 210 209 212 211 209 206 205 203 202 203 215 213 217 221 225 235 235 243 239 239 226 214
353 345 339 326 309 296 289 291 280 263 250 241 232 229 229 225 216 212 214 213 202 202 195 202 196 198 201 200 200 204 207 210 214 215 213 218 222 224 235 246 248 245 240
6 2 353 343 330 317 301 290 268 253 244 236 226 220 213 211 210 211 210 213 212 202 197 194 193 194 193 191 192 196 200 198 199 201 204 198 200 207 210 227 245 256 261
12 8 3 356 345 331 321 307 295 275 251 247 230 224 209 203 202 199 213 217 212 212 198 191 190 188 185 184 190 188 199 198 203 191 189 200 197 194 208 220 233 244 254
10 4 360 358 353 345 335 319 291 277 267 253 242 234 228 210 199 191 190 207 199 191 179 178 178 177 181 181 172 181 200 206 196 195 195 187 183 186 195 204 219 243 263
12 5 359 356 354 349 344 334 314 293 275 264 257 247 231 220 213 200 191 194 188 182 166 159 159 163 166 174 175 179 181 183 185 188 184 181 181 181 187 190 219 241 250
13 6 0 349 346 349 345 338 330 306 296 270 265 259 249 241 242 211 202 199 181 176 165 159 163 169 173 174 171 167 170 174 179 182 179 189 181 173 182 192 226 246 265
13 8 5 4 348 342 344 336 323 316 310 281 272 254 255 258 232 207 196 186 177 175 163 163 168 174 174 173 173 173 167 172 179 184 183 184 188 187 199 213 239 275 291
13 11 9 8 4 353 355 346 330 340 15 27 16 307 214 191 187 174 171 164 155 171 175 168 166 169 166 164 163 161 160 161 166 170 172 161 163 166 161 157 252 297 310
14 12 13 12 18 11 11 23 40 68 65 60 70 81 87 107 128 137 149 149 145 145 151 147 145 146 148 150 150 150 155 159 161 169 163 151 151 162 138 99 44 340 335
21 16 17 22 28 28 27 40 63 67 70 79 75 81 104 116 93 99 121 134 135 133 135 133 133 134 137 142 147 151 154 155 160 158 145 145 147 136 109 95 69 39 8
29 33 35 43 48 54 53 55 71 76 62 62 70 86 103 102 97 97 99 107 117 120 122 122 122 127 133 140 144 144 142 143 147 140 138 147 141 120 111 100 78 47 359
29 37 40 44 48 57 64 70 73 76 80 76 70 69 101 105 104 103 101 101 104 107 111 119 124 128 130 132 132 134 137 139 138 140 144 138 121 108 99 84 52 17 359
30 33 39 49 57 67 71 73 72 74 76 82 89 89 90 92 95 97 99 101 104 105 110 118 123 125 126 124 125 126 123 122 124 131 134 130 116 104 79 43 11 357 346
14 22 35 50 58 70 78 80 81 84 86 87 86 88 91 93 93 94 97 99 103 109 114 116 117 118 117 113 114 113 110 111 117 127 130 123 113 84 14 346 338 332 325
13 19 31 50 65 73 81 83 84 85 88 91 93 96 97 99 100 100 100 102 102 105 108 110 106 103 103 100 97 96 99 94 107 117 108 118 106 349 322 317 318 315 317
19 24 35 46 63 75 84 94 96 98 100 102 103 103 107 112 114 115 112 110 108 105 102 102 103 100 97 91 85 79 88 74 120 187 330 323 319 318 310 308 309 310 313